TIME,DELAY(SENSOR),PRES,T(CTD),SAL,OXYGEN,RAWTEMP,T(OPTODE),TCPHASE,TURBIDITY,TURBIDITY_GAIN,FLUOR,BETA,CDOM,ED411.5,ED443.8,ED489.6,PAR,COMP,TILT,TILTY(TILT),CHECK
1340028177,5910,289.0700073242187500,12.2913999557495120,35.5708007812500000,269.3858947753906000,420.7054138183594000,12.2695398330688480,32.0833396911621100,24,3,48,97,61,2147641444,2147386486,2147268141,2148303716,1734,0,-6,7269
1340028249,5910,287.1600036621094000,12.3325996398925780,35.5760993957519500,268.7760925292969000,418.8782958984375000,12.3256101608276370,32.0824317932128900,48,3,48,97,61,2147643218,2147385307,2147269522,2148306130,1553,0,-5,12678
1340028321,5909,285.3599853515625000,12.3331003189086910,35.5759010314941400,268.8111877441406000,418.7164001464844000,12.3305702209472660,32.0787582397460940,53,3,49,101,61,2147642432,2147383314,2147268123,2148303716,1236,0,-6,24818
1340028405,5910,283.3500061035156000,12.3334999084472660,35.5731010437011700,269.4377136230469000,418.6835021972656000,12.3315801620483400,32.0516510009765600,56,3,48,96,61,2147639067,2147384649,2147266413,2148304996,928,0,-6,58899
1340028489,5911,281.3299865722656000,12.3357000350952150,35.5710983276367200,269.9760131835937500,418.6276855468750000,12.3332996368408200,32.0279693603515600,335,3,49,104,60,2147642697,2147386578,2147268827,2148304219,450,0,-6,43345
1340028573,5910,279.3099975585937500,12.3379001617431640,35.5676002502441400,270.7672119140625000,418.5394897460937500,12.3360004425048830,31.9933490753173830,291,3,49,98,61,2147641472,2147384301,2147269522,2148305088,3054,0,-5,58670
1340028661,5908,276.4500122070312500,12.3351001739501950,35.5652999877929700,272.3163146972656000,418.6156921386719000,12.3336601257324220,31.9290904998779300,388,3,48,98,60,2147640676,2147386441,2147274560,2148305929,2793,0,-5,65509
1340028721,5910,273.4299926757812500,12.3312997817993160,35.5619010925293000,273.5213012695312500,418.7319946289062500,12.3301000595092770,31.8805809020996100,445,3,48,100,61,2147641874,2147382409,2147274459,2148306084,2508,0,-6,23512
1340028783,5909,270.2300109863281000,12.3379001617431640,35.5615005493164060,274.0228881835937500,418.5101928710937500,12.3368997573852540,31.8565101623535160,479,3,48,98,61,2147640201,2147385846,2147272182,2148307364,2363,0,-6,26513
1340028843,5909,266.9800109863281000,12.3372001647949220,35.5589981079101560,274.6561889648437500,418.5411987304687500,12.3359498977661130,31.8303203582763670,445,3,50,99,60,2147639606,2147385408,2147275867,2148304502,2095,0,-5,28526
1340028905,5908,263.4800109863281000,12.3661003112792970,35.5625000000000000,274.2445983886719000,417.6931152343750000,12.3619699478149410,31.8351707458496100,425,3,49,98,60,2147641115,2147386971,2147278747,2148304594,1689,0,-6,18479
1340028965,5909,260.0799865722656000,12.3723001480102540,35.5589981079101560,274.4480895996094000,417.4231872558594000,12.3702497482299800,31.8228206634521500,490,3,48,102,61,2147644004,2147388873,2147281947,2148308187,1270,0,-6,36594
1340029027,5910,256.4299926757812500,12.4064998626708980,35.5640983581543000,274.7890930175781000,416.4649963378906000,12.3996400833129880,31.7947807312011720,474,3,49,99,60,2147643556,2147385572,2147285028,2148305782,827,0,-6,50974
1340029087,5910,252.8399963378906200,12.4100999832153320,35.5652008056640600,274.8124084472656000,416.2396850585937500,12.4065504074096680,31.7903099060058600,453,3,50,103,60,2147647478,2147387136,2147292004,2148303798,286,0,-6,24876
1340029149,5909,249.1199951171875000,12.3994998931884770,35.5596008300781250,275.4573974609375000,416.4914855957031000,12.3988304138183600,31.7674598693847660,453,3,49,99,60,2147644827,2147388361,2147298944,2148308589,3551,0,-6,39773
1340029209,5910,245.5500030517578000,12.4170999526977540,35.5589981079101560,276.5239868164062500,415.8222961425781000,12.4193496704101560,31.7135505676269530,458,3,49,99,60,2147638610,2147388900,2147303478,2148308507,2919,0,-6,1934
1340029271,5911,241.8800048828125000,12.4524002075195310,35.5642013549804700,277.4818115234375000,414.8671875000000000,12.4486398696899410,31.6604499816894530,460,3,49,101,61,2147640786,2147391917,2147309988,2148311917,2502,0,-6,46176
1340029331,5909,238.3300018310547000,12.4544000625610350,35.5647010803222660,277.8120117187500000,414.7349853515625000,12.4526996612548830,31.6453399658203120,518,3,49,100,60,2147641691,2147390802,2147316790,2148309028,2221,0,-6,7371
1340029393,5911,234.6799926757812500,12.4622001647949220,35.5663986206054700,277.9808959960937500,414.5426940917969000,12.4585895538330080,31.6353797912597660,449,3,49,100,60,2147641874,2147391085,2147329142,2148310784,1957,0,-6,65210
1340029453,5909,231.2200012207031200,12.4575996398925780,35.5649986267089840,278.2908935546875000,414.5769958496094000,12.4575395584106450,31.6232891082763670,493,3,49,100,61,2147642779,2147391872,2147334729,2148310345,1597,0,-6,3749
1340029515,5911,227.6699981689453000,12.4729003906250000,35.5670013427734400,278.3186035156250000,414.0927124023437500,12.4723901748657230,31.6148605346679700,511,3,49,103,61,2147645632,2147393846,2147343488,2148311643,1133,0,-6,1288
1340029575,5909,224.3999938964843800,12.4813995361328120,35.5685005187988300,278.7029113769531000,413.8356018066406000,12.4802703857421880,31.5956993103027340,537,3,50,99,60,2147642066,2147395538,2147352832,2148315044,1020,0,-6,11911
1340029637,5909,221.2500000000000000,12.4849996566772460,35.5651016235351560,279.8517150878906000,413.7170104980469000,12.4839096069335940,31.5472602844238280,534,3,49,103,60,2147640758,2147393609,2147361993,2148316141,486,0,-6,47169
1340029697,5908,218.3300018310547000,12.4972000122070310,35.5667991638183600,280.5953979492187500,413.3008117675781000,12.4966697692871100,31.5110092163085940,477,3,49,100,61,2147644086,2147397869,2147372406,2148315867,86,0,-6,57149
1340029759,5910,215.4900054931640600,12.5181999206542970,35.5702018737793000,281.1796875000000000,412.6290893554687500,12.5172595977783200,31.4778003692626950,534,3,50,98,61,2147642761,2147398326,2147380004,2148317796,3124,0,-6,21063
1340029819,5909,212.8500061035156200,12.5297002792358400,35.5727996826171900,281.2608947753906000,412.2390136718750000,12.5292196273803710,31.4689197540283200,388,3,50,101,60,2147644891,2147399305,2147390710,2148316598,2871,0,-6,19433
1340029881,5910,210.1499938964843800,12.5546998977661130,35.5760002136230500,281.6101074218750000,411.4744873046875000,12.5526504516601560,31.4437904357910160,473,3,49,100,59,2147643446,2147400000,2147399168,2148319332,2529,0,-6,42622
1340029941,5911,207.5899963378906200,12.5900001525878900,35.5806007385253900,282.7656860351562500,410.3869018554687500,12.5859804153442380,31.3818893432617200,516,3,49,99,59,2147643510,2147402834,2147403958,2148317229,2371,0,-6,26889
1340030003,5909,205.1000061035156200,12.6258001327514650,35.5856018066406250,283.5552062988281000,409.1896057128906000,12.6226596832275390,31.3330097198486330,500,3,49,101,60,2147645156,2147405010,2147412379,2148321874,2158,0,-6,902
1340030063,5909,202.7200012207031200,12.6374998092651370,35.5876007080078100,283.9715881347656000,408.7587890625000000,12.6358604431152340,31.3100700378417970,558,3,50,103,61,2147642825,2147404489,2147418596,2148319195,1736,0,-6,17712
1340030151,5911,198.5899963378906200,12.6520004272460940,35.5892982482910160,284.5007934570312500,408.2359008789062500,12.6518802642822270,31.2818508148193360,565,3,48,100,60,2147642651,2147402934,2147436644,2148323510,1287,0,-6,19655
1340030211,5910,195.0800018310547000,12.6525001525878900,35.5878982543945300,285.1882934570312500,408.2344970703125000,12.6519203186035160,31.2545509338378900,578,3,49,99,61,2147647305,2147408329,2147457810,2148327195,918,0,-6,64120
1340030273,5909,191.4299926757812500,12.6387996673583980,35.5788002014160160,286.3075866699219000,408.6571960449219000,12.6389703750610350,31.2165508270263670,560,3,50,101,60,2147644443,2147410742,2147478198,2148328274,144,0,-6,35055
1340030333,5911,187.9100036621093800,12.6828002929687500,35.5867996215820300,287.9135131835937500,407.2904968261719000,12.6808395385742190,31.1337299346923830,612,3,50,101,60,2147643163,2147414884,2147499483,2148328548,3134,0,-6,12231
1340030395,5946,184.1900024414062500,12.7095003128051760,35.5909004211425800,290.1520080566406000,406.2585144042969000,12.7124395370483400,31.0319099426269530,534,3,49,98,59,2147643392,2147419328,2147532946,2148334710,2718,0,-6,51603
1340030455,5909,180.5099945068359400,12.7473001480102540,35.5941009521484400,291.1625976562500000,405.1199035644531000,12.7473096847534180,30.9765892028808600,577,3,49,98,59,2147646610,2147424713,2147568347,2148341714,2394,0,-6,53693
1340030540,5911,175.7200012207031200,12.7569999694824220,35.5948982238769500,291.2677917480469000,404.9366149902344000,12.7529201507568360,30.9698505401611330,587,3,50,100,58,2147642002,2147433024,2147618861,2148346752,1948,0,-6,31161
1340030600,5910,173.0000000000000000,12.7702999114990230,35.5942993164062500,291.5664978027344000,404.4411010742187500,12.7680902481079100,30.9511604309082030,528,3,50,99,59,2147643748,2147437787,2147655625,2148350381,1605,0,-6,32460
1340030662,5911,170.1900024414062500,12.7776002883911130,35.5959014892578100,291.9216003417969000,404.1659851074219000,12.7765102386474610,30.9335994720459000,477,3,48,99,58,2147643867,2147444580,2147694637,2148355373,1353,0,-6,49185
1340030722,5909,167.5399932861328000,12.7919998168945310,35.5936012268066400,292.5914916992187500,403.8385009765625000,12.7865400314331050,30.9032192230224600,476,3,50,98,59,2147645814,2147453056,2147730020,2148360484,908,0,-6,42205
1340030784,5911,164.8800048828125000,12.8329000473022460,35.5998992919921900,292.9779052734375000,402.5327148437500000,12.8265104293823240,30.8699302673339840,514,3,50,182,58,2147645184,2147458386,2147780306,2148367360,604,0,-5,13436
1340030844,5909,162.4600067138672000,12.8471002578735350,35.6013984680175800,293.0681152343750000,401.9462890625000000,12.8444595336914060,30.8582496643066400,494,3,50,99,59,2147645851,2147465417,2147815213,2148371666,290,0,-6,10469
1340030906,5909,160.0000000000000000,12.9160995483398440,35.6119003295898440,292.4194946289062500,399.8128051757812500,12.9097404479980470,30.8526096343994140,561,3,49,97,60,2147646985,2147476470,2147854034,2148375771,3448,0,-6,48187
1340030966,5910,157.6600036621093800,12.9931001663208000,35.6245994567871100,291.2827148437500000,397.2023010253906000,12.9895896911621100,30.8592796325683600,507,3,50,102,58,2147643602,2147481865,2147893028,2148381238,3242,0,-6,57084
1340031051,5909,153.9199981689453000,13.0146999359130860,35.6271018981933600,290.3558044433594000,396.4202880859375000,13.0135097503662110,30.8841209411621100,555,3,50,99,59,2147644626,2147494034,2147962587,2148393307,2898,0,-6,49694
1340031111,5908,150.5899963378906200,13.0136995315551760,35.6259994506835940,290.6095886230469000,396.4023132324219000,13.0140600204467770,30.8739795684814450,492,3,50,99,59,2147646400,2147502683,2148015954,2148397686,2623,0,-6,48059
1340031173,5909,147.0599975585937500,13.0194997787475590,35.6273002624511700,290.6567077636719000,396.1672973632812500,13.0212402343750000,30.8687705993652340,481,3,50,100,58,2147648475,2147513974,2148075218,2148406866,2424,0,-6,11005
1340031233,5909,143.5899963378906200,13.0320997238159180,35.6281013488769500,290.6339111328125000,395.7489929199219000,13.0340299606323240,30.8637790679931640,536,3,50,101,59,2147646518,2147533540,2148168795,2148417124,2195,0,-6,64584
1340031295,5908,139.8300018310547000,13.0438995361328120,35.6287002563476560,290.5815124511719000,395.5969848632812500,13.0386800765991210,30.8637504577636720,527,3,50,100,59,2147651401,2147553682,2148281645,2148436589,1890,0,-6,40682
1340031355,5908,136.1399993896484400,13.0492000579833980,35.6245002746582000,291.0415954589844000,395.1975097656250000,13.0509004592895500,30.8403396606445300,601,3,50,103,59,2147653622,2147580150,2148424210,2148455497,1575,0,-6,16820
1340031440,5910,131.6000061035156200,13.0612001419067380,35.6263008117675800,291.1918945312500000,394.9226074218750000,13.0593004226684570,30.8306293487548830,440,3,51,99,58,2147654034,2147624320,2148626889,2148485056,1311,0,-6,29475
1340031500,5911,128.9799957275390600,13.0656995773315430,35.6230010986328100,291.2980957031250000,394.6961059570312500,13.0662202835083000,30.8232803344726560,532,3,51,100,58,2147657627,2147658624,2148797540,2148510226,1054,0,-6,6555
1340031562,5910,126.1399993896484400,13.1075000762939450,35.6260986328125000,291.3883972167969000,393.5263061523437500,13.1019897460937500,30.8034400939941400,464,3,54,100,58,2147659894,2147702226,2148994560,2148539547,614,0,-6,51175
1340031622,5908,123.3199996948242200,13.1396999359130860,35.6315002441406250,291.2137145996094000,392.5545043945312500,13.1316900253295900,30.7961692810058600,506,3,53,101,59,2147665261,2147745417,2149176603,2148566592,22,0,-6,46185
1340031684,5910,120.3399963378906200,13.1677999496459960,35.6363983154296900,290.6140136718750000,391.5398864746094000,13.1626996994018550,30.8050899505615230,554,3,53,101,59,2147665956,2147792201,2149376064,2148598747,32,0,-6,46904
1340031744,5907,117.4700012207031200,13.1859998703002930,35.6399002075195300,290.3099975585937500,390.8481140136719000,13.1838397979736330,30.8069591522216800,416,3,53,109,58,2147668836,2147842560,2149587584,2148631606,29,0,-6,40479
1340031806,5909,114.5400009155273400,13.1989002227783200,35.6412010192871100,290.1502990722656000,390.4030151367187500,13.1974296569824220,30.8068504333496100,423,3,54,103,59,2147677568,2147896576,2149817270,2148667611,3453,0,-6,8857
1340031866,5909,111.6900024414062500,13.2944002151489260,35.6467018127441400,289.6639099121094000,387.5448913574219000,13.2847499847412110,30.7852401733398440,469,3,54,100,60,2147685220,2147954331,2150048393,2148703003,3030,0,-6,51786
1340031928,5911,108.9400024414062500,13.3187999725341800,35.6492004394531250,289.6052856445312500,386.8476867675781000,13.3060398101806640,30.7780208587646500,492,3,57,101,60,2147690285,2148007981,2150283008,2148746944,2270,0,-6,35586
1340031988,5910,106.2900009155273400,13.3683996200561520,35.6492004394531250,289.4880065917969000,384.8033142089844000,13.3684597015380860,30.7538509368896500,460,3,57,101,60,2147699949,2148091501,2150602852,2148800960,1958,0,-6,64486
1340032050,5909,103.6200027465820300,13.4013004302978520,35.6514015197753900,289.8133850097656000,384.0754089355469000,13.3906803131103520,30.7308998107910160,425,3,58,98,59,2147709769,2148183378,2150944612,2148861056,1453,0,-6,18184
1340032110,5912,101.1200027465820300,13.4133996963500980,35.6521987915039060,290.0487060546875000,383.4065856933594000,13.4111003875732420,30.7125396728515620,395,3,57,104,59,2147724726,2148282724,2151322349,2148929234,1304,0,-6,12380
1340032172,5908,98.5800018310546900,13.4189996719360350,35.6529998779296900,290.2080993652344000,383.1691894531250000,13.4183502197265620,30.7030200958251950,397,3,58,103,59,2147741202,2148394989,2151743149,2149003401,1092,0,-6,8334
